Weather History for Casper, WY

Change the Weather History Date:

Monday, November 4, 2013

  Actual Average Record
Temperature  
Mean Temperature 29 °F 39 °F  
Max Temperature 38 °F 51 °F 71 °F (1983)
Min Temperature 19 °F 26 °F 2 °F (1973)
Degree Days  
Heating Degree Days 36 26  
Month to date heating degree days 111 103  
Since 1 July heating degree days 1000 1002  
Cooling Degree Days 0 0  
Month to date cooling degree days 0 0  
Year to date cooling degree days 618 422  
Moisture  
Dew Point 16 °F    
Average Humidity 60    
Maximum Humidity 88    
Minimum Humidity 32    
Precipitation  
Precipitation 0.00 in 0.03 in 0.20 in (1960)
Month to date precipitation 0.01 0.12  
Year to date precipitation 13.71 11.39  
Snow  
Snow 0.00 in 0.30 in - ()
Month to date snowfall 0.1 1.2  
Since 1 July snowfall 21.3 10.4  
Since 1 September snowfall 21.3 10.4  
Snow Depth T in    
Sea Level Pressure  
Sea Level Pressure 30.00 in    
Wind  
Wind Speed 9 mph (WSW)    
Max Wind Speed 23 mph    
Max Gust Speed 30 mph    
Visibility 10 miles    
Events      
T = Trace of Precipitation, MM = Missing Value Source: NWS Daily Summary

Daily Weather History Graph

Daily Weather History Graph

Search for Another Location

Airport:

Trip Planner

Search our weather history database for the weather conditions in past years. The results will help you decide how hot, cold, wet, or windy it might be!

Date:

Astronomy

Nov. 04, 2013 Rise Set
Actual Time 6:44 AM MST 4:53 PM MST
Civil Twilight 6:14 AM MST 5:23 PM MST
Nautical Twilight 5:41 AM MST 5:57 PM MST
Astronomical Twilight 5:07 AM MST 6:30 PM MST
Moon 7:59 AM MST (11/4) 5:59 PM MST (11/4)
Length of Visible Light 11h 08m
Length of Day
10h 09m
New Moon, 2% of the Moon is Illuminated
Nov 4
New Moon
Nov 9
First Quarter
Nov 17
Full
Nov 25
Last Quarter
Dec 2
New

Hourly Weather History & Observations

Time (MST) Temp. Windchill Dew Point Humidity Pressure Visibility Wind Dir Wind Speed Gust Speed Precip Events Conditions
12:53 AM 23.0 °F 14.7 °F 19.0 °F 85% 29.95 in 10.0 mi SW 6.9 mph - N/A   Clear
1:53 AM 21.0 °F 12.4 °F 17.1 °F 85% 29.97 in 10.0 mi WSW 6.9 mph - N/A   Clear
2:53 AM 24.1 °F 12.5 °F 18.0 °F 77% 29.98 in 10.0 mi WSW 12.7 mph - N/A   Clear
3:53 AM 23.0 °F 14.7 °F 17.1 °F 78% 29.99 in 10.0 mi SW 6.9 mph 16.1 mph N/A   Clear
4:53 AM 23.0 °F 13.9 °F 15.1 °F 72% 30.00 in 10.0 mi WSW 8.1 mph - N/A   Clear
5:53 AM 23.0 °F 11.1 °F 14.0 °F 68% 30.00 in 10.0 mi SSW 12.7 mph - N/A   Clear
6:53 AM 21.9 °F 9.2 °F 14.0 °F 72% 30.01 in 10.0 mi SSW 13.8 mph - N/A   Clear
7:53 AM 21.9 °F 14.5 °F 15.1 °F 75% 30.06 in 10.0 mi SW 5.8 mph - N/A   Clear
8:53 AM 28.0 °F 16.1 °F 18.0 °F 66% 30.04 in 10.0 mi SW 16.1 mph - N/A   Clear
9:53 AM 32.0 °F 21.6 °F 16.0 °F 52% 30.03 in 10.0 mi SW 15.0 mph - N/A   Clear
10:53 AM 34.0 °F 22.4 °F 12.9 °F 42% 30.00 in 10.0 mi SW 20.7 mph 25.3 mph N/A   Clear
11:53 AM 37.9 °F 27.6 °F 10.0 °F 32% 29.96 in 10.0 mi WSW 20.7 mph 27.6 mph N/A   Scattered Clouds
12:53 PM 36.0 °F 28.5 °F 10.9 °F 36% 29.97 in 10.0 mi West 10.4 mph 20.7 mph N/A   Overcast
1:53 PM 36.0 °F 28.5 °F 10.9 °F 36% 29.97 in 10.0 mi SW 10.4 mph - N/A   Overcast
2:53 PM 36.0 °F 28.0 °F 10.0 °F 34% 29.96 in 10.0 mi WSW 11.5 mph - N/A   Overcast
3:53 PM 36.0 °F 30.3 °F 12.0 °F 37% 29.96 in 10.0 mi SSW 6.9 mph - N/A   Mostly Cloudy
4:53 PM 34.0 °F - 14.0 °F 44% 29.98 in 10.0 mi Calm Calm - N/A   Overcast
5:53 PM 32.0 °F 26.4 °F 15.1 °F 50% 30.00 in 10.0 mi West 5.8 mph - N/A   Overcast
6:53 PM 30.9 °F 25.2 °F 18.0 °F 59% 30.03 in 10.0 mi South 5.8 mph - N/A   Overcast
7:53 PM 28.9 °F 23.9 °F 18.0 °F 64% 30.04 in 10.0 mi West 4.6 mph - N/A   Overcast
8:53 PM 30.9 °F 25.2 °F 19.0 °F 61% 30.01 in 10.0 mi SSW 5.8 mph - N/A   Overcast
9:53 PM 28.0 °F 22.8 °F 19.9 °F 72% 30.04 in 10.0 mi NNW 4.6 mph - N/A   Overcast
10:53 PM 27.0 °F 19.5 °F 19.9 °F 75% 30.04 in 10.0 mi NNW 6.9 mph - N/A   Overcast
11:53 PM 27.0 °F 19.5 °F 21.9 °F 81% 30.03 in 10.0 mi NNW 6.9 mph - N/A   Overcast